Flag for Canada Weather past 2 weeks in Churchill, Manitoba, Canada

Now
7 °F

Passing clouds.


Feels Like: -11 °F
Forecast: 4 / 9 °F
Wind: 15 mph from Northwest

Location: Churchill

Current Time: Dec 20, 2014 at 12:53:57 AM

Latest Report: Dec 20, 2014 at 12:00 AM


Visibility: 15 mi

Pressure: 30.02 "Hg

Humidity: 85%

Dew point: 3 °F

Location of ChurchillLocation

Historic Weather in Churchill — Graph

°F

Churchill temperature yesterday

Maximum temperature yesterday: 16 °F (at 8:00 PM)
Minimum temperature yesterday: 3 °F (at 12:00 AM)
Average temperature yesterday: 10 °F

Past Weeks' High & Low Weather Summary

 TemperatureHumidityPressure
High32 °F (Dec 10, 10:00 PM)100% (Dec 12, 12:00 AM)30.55 "Hg (Dec 12, 12:00 AM)
Low-22 °F (Dec 6, 4:00 AM)62% (Dec 5, 6:00 PM)29.42 "Hg (Dec 10, 2:00 PM)
Average3 °F83%30.08 "Hg
* Reported Dec 4 11:00 PM — Dec 19 11:00 PM, Churchill, Weather by CustomWeather, © 2014

Note: Actual official high and low records may vary slightly from our data, if they occured in-between our weather recording intervals... More about our weather records

Advertising

Churchill weather history for previous 24 hours

 ConditionsComfort  
Time TempWeatherWind HumidityBarometerVisibility
11:00 PM
Dec 19
12 °FLight snow. Overcast.16 mph85%30.01 "Hg15 mi
10:00 PM14 °FLight snow. Overcast.15 mph85%29.98 "Hg15 mi
9:00 PM14 °FLight snow. Overcast.13 mph85%29.97 "Hg15 mi
8:00 PM16 °FLight snow. Mostly cloudy.15 mph93%29.96 "Hg15 mi
7:00 PM14 °FLight snow. Passing clouds.10 mph92%29.96 "Hg15 mi
6:00 PM14 °FLight snow. Passing clouds.8 mph92%29.95 "Hg15 mi
5:00 PM12 °FPassing clouds.9 mph92%29.95 "Hg15 mi
4:00 PM14 °FLight snow. Mostly cloudy.9 mph92%29.94 "Hg15 mi
3:00 PM14 °FLight snow. Overcast.7 mph85%29.93 "Hg15 mi
2:00 PM12 °FLight snow. Overcast.9 mph92%29.92 "Hg15 mi
1:00 PM12 °FLight snow. Overcast.8 mph85%29.92 "Hg10 mi
12:00 PM10 °FLight snow. Overcast.8 mph92%29.93 "Hg8 mi
11:00 AM10 °FLight snow. Overcast.8 mph92%29.94 "Hg10 mi
10:00 AM10 °FLight snow. Overcast.8 mph92%29.95 "Hg10 mi
9:00 AM10 °FLight snow. Overcast.8 mph92%29.94 "Hg15 mi
8:00 AM10 °FLight snow. Overcast.6 mph92%29.95 "Hg10 mi
7:00 AM10 °FOvercast.7 mph92%29.96 "Hg15 mi
6:00 AM7 °FLight snow. Overcast.6 mph92%29.96 "Hg12 mi
5:00 AM7 °FLight snow. Overcast.3 mph92%29.96 "Hg15 mi
4:00 AM7 °FLight snow. Overcast.3 mph85%29.97 "Hg15 mi
3:00 AM7 °FLight snow. Overcast.2 mph85%29.98 "Hg15 mi
2:00 AM3 °FLight snow. Overcast.6 mph92%29.98 "Hg15 mi
1:00 AM3 °FLight snow. Overcast.5 mph92%29.98 "Hg12 mi
12:00 AM3 °FLight snow. Overcast.5 mph92%29.98 "Hg15 mi
Weather by CustomWeather, © 2014

See weather overviewHow to use our weather pages